Portada
METAR-TAF:

METAR-TAF

Aeroports :

Municipal_Airport

Plymouth, Nova Hampshire, Estats Units d'Amèrica

latitud: 43-46-45N, longitud: 071-45-13W, altitud: 154 m

Observació

L'informe es va fer fa 31 minuts, a les 11:55 UTC
Vent 3 kt del Oest/Nord-Oest
Temperatura 6°C
Humitat 100%
Pressió 1025 hPa
Visibilitat: 1.6 km
Cel ennuvolat a una alçada de 100 ft
boirina

METAR: K1P1 221155Z AUTO 30003KT 1SM BR BKN001 06/06 A3026 RMK AO2 T00630061 10110 20057

Hora: 08:26 (12:26 UTC)


TAF: manca

Observacions i pronòstics meteorològics de més de 4000 aeroports (METAR i TAF).

Les estacions disponibles són els punts grocs i vermells al mapa.

Posi el ratolí al punt desitjat per veure el nom de l'estació.

Feu clic per veure les observacions i els pronòstics meteorològics.

Per canviar el mapa: feu clic els botons verds amb una creu de color negre per apropar; al botó verd amb un guió per allunyar la imatge; o en les fletxes verdes per a mapes adjacents.


METAR-TAF: